Skip Page Navigation
NASA JPL Caltech
NASA Logo - Jet Propulsion Laboratory + View the NASA Portal
+ Center for Near-Earth Object Studies
JPL Home Earth Solar System Stars & Galaxies Technology
JPL Solar System Dynamics
BODIES ORBITS EPHEMERIDES TOOLS PHYSICAL DATA DISCOVERY FAQ SITE MAP
JPL Small-Body Database Browser
Search: [ help ]  
441058 (2007 PH25)
Classification: Apollo [NEO]          SPK-ID: 2441058
Ephemeris | Orbit Diagram | Orbital Elements | Mission Design | Physical Parameters | Discovery Circumstances | Close-Approach Data ]

[ show orbit diagram ]
Orbital Elements at Epoch 2459000.5 (2020-May-31.0) TDB
Reference: JPL 44 (heliocentric ecliptic J2000)
 Element Value Uncertainty (1-sigma)   Units 
e .8128072130106978 6.4336e-08  
a 2.541405283732181 3.0256e-08 au
q .4757327379311654 1.6415e-07 au
i 53.23894776319722 1.6369e-05 deg
node 150.3047777850333 1.0911e-05 deg
peri 331.809714450025 2.2129e-05 deg
M 35.28412583159004 2.3598e-05 deg
tp 2458855.460537689940
(2020-Jan-06.96053769)
9.4741e-05 TDB
period 1479.821455144968
4.05
2.6426e-05
7.235e-08
d
yr
n .2432725912632029 4.3443e-09 deg/d
Q 4.607077829533197 5.4848e-08 au
  Orbit Determination Parameters
   # obs. used (total)      207  
   data-arc span      4717 days (12.91 yr)  
   first obs. used      2007-08-12  
   last obs. used      2020-07-11  
   planetary ephem.      DE431  
   SB-pert. ephem.      SB431-N16  
   condition code      0  
   norm. resid. RMS      .48423  
   source      ORB  
   producer      Otto Matic  
   solution date      2020-Jul-12 06:40:00  

Additional Information
 Earth MOID = .473925 au 
 Jupiter MOID = 1.35936 au 
 T_jup = 2.535 
[ show covariance matrix ]

Ephemeris | Orbit Diagram | Orbital Elements | Mission Design | Physical Parameters | Discovery Circumstances | Close-Approach Data ]

Physical Parameter Table
Parameter Symbol Value Units Sigma Reference Notes
absolute magnitude H 16.4   n/a MPO495184  

441058 (2007 PH25)          Discovered 2007-Aug-12 by Siding Spring Survey at Siding Spring
Reference: Last Updated: 2015-09-02

[ hide close-approach data ]
Close-Approach Data   ...sorted by Date/Time (TDB)
Date/Time (TDB) Time Uncertainty
(days_HH:MM)
Body Nominal Distance (au) Minimum Distance (au) Maximum Distance (au) V-relative (km/s) V-infinity (km/s) JD (TDB) Time Uncertainty (minutes) Semi-major axis (km) Semi-minor axis (km) range-LOV angle (deg) N-sigma BP Orbit Ref. Reference Modified
1902-Aug-15 13:38 00:04 Jupiter 1.71284891849066 1.71283313061414 1.71286470660261 14.5861457500204 14.5522034749368 2415977.067888222 4.31967355801406 1285.13990414372 125.610098812609 -52.7096593755427 1104728.52856125 T 44 CATAB v2.0f-lin.ifort 2020-Jul-12 06:40:12 2020-Jul-12 06:40
1914-Aug-11 21:33 00:03 Jupiter 1.50211396726601 1.50210758321233 1.50212035146211 13.3775174572339 13.3352989973612 2420356.397904081 2.731654384943 860.682787688831 129.144247075638 -70.1530401948333 1134872.76855815 T 44 CATAB v2.0f-lin.ifort 2020-Jul-12 06:40:12 2020-Jul-12 06:40
1926-Jul-26 03:49 00:02 Jupiter 1.42104046060018 1.42103796970137 1.42104295149908 12.546047405318 12.4984474845201 2424722.658848857 1.61324839719375 549.651109524609 123.694292245961 89.3102878338095 1196313.7073176 T 44 CATAB v2.0f-lin.ifort 2020-Jul-12 06:40:12 2020-Jul-12 06:40
1938-Jun-29 03:58 < 00:01 Jupiter 1.41188877377315 1.41188502144518 1.41189252612174 11.9561844336382 11.9059020276093 2429078.665585617 0.954844858825041 370.154892577849 100.106795038407 63.5520690313957 1308465.32476017 T 44 CATAB v2.0f-lin.ifort 2020-Jul-12 06:40:12 2020-Jul-12 06:40
1950-May-26 14:08 < 00:01 Jupiter 1.45182016533467 1.45181538859475 1.45182494208226 11.5182669552572 11.4675032790664 2433428.088683262 0.666890183060659 293.719689464017 55.7582564305667 36.4376027485728 1543589.72753075 T 44 CATAB v2.0f-lin.ifort 2020-Jul-12 06:40:12 2020-Jul-12 06:40
1962-Apr-18 13:26 < 00:01 Jupiter 1.53985823038002 1.53985293417369 1.53986352658757 11.1655205125439 11.1161467154181 2437773.059379232 0.628733425679702 272.980164269525 15.1391923322347 14.4823437930358 2408060.84510703 T 44 CATAB v2.0f-lin.ifort 2020-Jul-12 06:40:12 2020-Jul-12 06:40
1974-Mar-08 00:03 < 00:01 Jupiter 1.67770567190381 1.67770013303556 1.67771121077205 10.9135880407546 10.8672289390407 2442114.501854805 0.704123414528907 276.675601630101 40.8279815686958 -3.16760603715782 941683.659009317 T 44 CATAB v2.0f-lin.ifort 2020-Jul-12 06:40:12 2020-Jul-12 06:40
1986-Jan-20 15:43 < 00:01 Jupiter 1.87087507594391 1.87086954419826 1.87088060769064 10.8351996959241 10.7933345052277 2446451.155028554 0.812151756020909 285.677864429114 65.2275636732604 -15.568057426272 1288971.16603393 T 44 CATAB v2.0f-lin.ifort 2020-Jul-12 06:40:12 2020-Jul-12 06:40
2028-Feb-29 08:57 < 00:01 Earth 0.469138105265286 0.46913751706586 0.469138693515754 44.2017749002247 44.2016464092659 2461830.873249064 0.713028836935772 532.172958634856 26.0571283114121 -88.5479875240617 2616833.94757545 T 44 CATAB v2.0f-lin.ifort 2020-Jul-12 06:40:12 2020-Jul-12 06:40
2089-Feb-12 05:26 00:03 Earth 0.481408671556625 0.481403706049326 0.481413639703652 43.9563087357254 43.9561828206137 2484094.726480706 2.58022052972955 1804.33083570262 25.6699293969234 82.1522128825174 2697752.44109943 T 44 CATAB v2.0f-lin.ifort 2020-Jul-12 06:40:12 2020-Jul-12 06:40
2093-Mar-06 16:09 00:03 Earth 0.474001701333115 0.473997778214824 0.474005627588212 44.5892325889132 44.589106521433 2485578.173077988 2.55768637127357 1950.41719946656 26.4126465054242 -84.2934939064101 2604691.7857972 T 44 CATAB v2.0f-lin.ifort 2020-Jul-12 06:40:12 2020-Jul-12 06:40
2104-Apr-10 16:10 00:01 Jupiter 1.66141618115139 1.66141066817716 1.66142169412724 14.5296315531274 14.4945008154892 2489630.173569392 1.41497551314529 288.754757243332 104.632649830602 -19.5792794947971 803065.902619711 T 44 CATAB v2.0f-lin.ifort 2020-Jul-12 06:40:12 2020-Jul-12 06:40
2116-Apr-08 07:41 00:01 Jupiter 1.44776959524418 1.44776525633566 1.44777393415451 13.4059171577766 13.3622044608157 2494010.819931798 1.22892005317673 236.610522996786 112.369641591484 -27.8227654103027 873736.439430233 T 44 CATAB v2.0f-lin.ifort 2020-Jul-12 06:40:12 2020-Jul-12 06:40
2128-Mar-22 20:21 00:01 Jupiter 1.36090280883901 1.36089947296789 1.36090614471059 12.6587503851166 12.6094871544492 2498377.347909074 1.07715823790818 178.834797036458 127.108328356103 -32.2199939580615 938418.535517696 T 44 CATAB v2.0f-lin.ifort 2020-Jul-12 06:40:12 2020-Jul-12 06:40
2140-Feb-24 12:28 00:01 Jupiter 1.35947707927046 1.35947419117993 1.35947996736115 12.1311294598072 12.0796606532437 2502733.019619031 1.02163649171578 152.375037091368 126.484355062661 36.8040670603344 1040263.49324918 T 44 CATAB v2.0f-lin.ifort 2020-Jul-12 06:40:12 2020-Jul-12 06:40
2152-Jan-22 23:49 00:01 Jupiter 1.41054214872468 1.41053901736805 1.41054528008338 11.7404666460303 11.6892073500645 2507083.492114378 1.04654828470986 183.701278524551 73.4915606629437 35.1661678394561 1282317.30945901 T 44 CATAB v2.0f-lin.ifort 2020-Jul-12 06:40:12 2020-Jul-12 06:40
2163-Dec-19 19:00 00:01 Jupiter 1.50311480824492 1.50311056535473 1.50311905113664 11.4383664735804 11.388994887023 2511432.291589712 1.09575329480172 225.137551421677 16.3039453323162 19.9495730721867 2997909.24710908 T 44 CATAB v2.0f-lin.ifort 2020-Jul-12 06:40:12 2020-Jul-12 06:40
2175-Nov-13 11:55 00:01 Jupiter 1.6435311460079 1.64352479717537 1.64353749484136 11.2349376420343 11.1889717511159 2515778.996352161 1.07209548404333 323.723431043963 109.305968806823 -12.6784577852868 881282.313077275 T 44 CATAB v2.0f-lin.ifort 2020-Jul-12 06:40:12 2020-Jul-12 06:40
2187-Oct-04 06:29 < 00:01 Jupiter 1.84523047114523 1.84522135296674 1.84523958934827 11.2021261870489 11.1610736133859 2520121.770155770 0.91480076752072 578.962651884186 158.090224369248 -40.0903755709693 1088214.12541814 T 44 CATAB v2.0f-lin.ifort 2020-Jul-12 06:40:12 2020-Jul-12 06:40
2189-Jun-06 21:03 00:04 Venus 0.125795336209944 0.125789216464828 0.125801541673835 43.2206221785362 43.2202227717886 2520733.377375718 4.10963716481468 5206.06441605129 26.1228954370463 86.6281720648371 714361.813553225 T 44 CATAB v2.0f-lin.ifort 2020-Jul-12 06:40:12 2020-Jul-12 06:40
Ephemeris | Orbit Diagram | Orbital Elements | Mission Design | Physical Parameters | Discovery Circumstances | Close-Approach Data ]
ABOUT SSD CREDITS/AWARDS PRIVACY/COPYRIGHT GLOSSARY LINKS
FirstGov 2020-Sep-24 21:35 UT
(server date/time)  
NASA Home Page
Site Manager:   Ryan S. Park
Webmaster  Alan B. Chamberlin